[Date Prev][Date Next][Thread Prev][Thread Next] - [Date Index][Thread Index][Author Index]

2 Line ISS Keps 3-18



ISS
1 25544U 98067A   03077.53879503  .00026809  00000-0  34395-3 0  7942
2 25544  51.6345 115.5250 0008354 344.3437 134.1239 15.58904297246862


----
Via the sarex mailing list at AMSAT.ORG courtesy of AMSAT-NA.
To unsubscribe, send "unsubscribe sarex" to Majordomo@amsat.org



AMSAT Top AMSAT Home